FDX420 KIAD-KCMH

Flight info

Callsign FDX420
Flight time 0h 51m
Altitude 28000
Route BUNZZ3 RAMAY Q72 HACKS SCRLT2
Aircraft B77L/H-SDE1E2E3FGHIJ2J3J4J5M1RWXY/LB1D1

Departure

Time 2026-05-08 23:35
Airport Washington Dulles International Airport (KIAD)

Arrival

Time 2026-05-09 00:26
Airport John Glenn Columbus International Airport (KCMH)
Time Latitude Longitude Altitude Speed Heading
2026-05-08 23:11 38.96208 -77.45410 294 ft 0 kts 92°
2026-05-08 23:12 38.96208 -77.45411 294 ft 0 kts 92°
2026-05-08 23:21 38.96208 -77.45412 294 ft 0 kts 92°
2026-05-08 23:23 38.96208 -77.45422 298 ft 3 kts 92°
2026-05-08 23:24 38.96209 -77.45443 295 ft 2 kts 94°
2026-05-08 23:24 38.96212 -77.45463 298 ft 3 kts 139°
2026-05-08 23:24 38.96229 -77.45474 297 ft 3 kts 169°
2026-05-08 23:24 38.96245 -77.45477 297 ft 1 kts 181°
2026-05-08 23:25 38.96247 -77.45477 297 ft 0 kts 181°
2026-05-08 23:26 38.96240 -77.45482 297 ft 2 kts 212°
2026-05-08 23:26 38.96234 -77.45497 298 ft 2 kts 248°
2026-05-08 23:27 38.96226 -77.45529 296 ft 6 kts 252°
2026-05-08 23:27 38.96197 -77.45579 297 ft 8 kts 213°
2026-05-08 23:27 38.96142 -77.45587 296 ft 8 kts 177°
2026-05-08 23:27 38.96070 -77.45584 295 ft 14 kts 178°
2026-05-08 23:28 38.95974 -77.45583 298 ft 14 kts 182°
2026-05-08 23:28 38.95879 -77.45586 302 ft 14 kts 181°
2026-05-08 23:28 38.95784 -77.45588 301 ft 14 kts 181°
2026-05-08 23:28 38.95687 -77.45590 301 ft 15 kts 181°
2026-05-08 23:29 38.95564 -77.45592 303 ft 21 kts 180°
2026-05-08 23:29 38.95421 -77.45593 303 ft 21 kts 180°
2026-05-08 23:29 38.95264 -77.45595 301 ft 23 kts 180°
2026-05-08 23:29 38.95103 -77.45598 301 ft 23 kts 181°
2026-05-08 23:30 38.94942 -77.45600 300 ft 23 kts 181°
2026-05-08 23:30 38.94782 -77.45603 302 ft 23 kts 181°
2026-05-08 23:30 38.94621 -77.45606 305 ft 23 kts 181°
2026-05-08 23:30 38.94460 -77.45609 307 ft 23 kts 181°
2026-05-08 23:31 38.94300 -77.45612 308 ft 23 kts 181°
2026-05-08 23:31 38.94139 -77.45613 310 ft 23 kts 180°
2026-05-08 23:31 38.93979 -77.45614 310 ft 23 kts 180°
2026-05-08 23:31 38.93819 -77.45616 305 ft 23 kts 181°
2026-05-08 23:32 38.93677 -77.45572 301 ft 17 kts 133°
2026-05-08 23:32 38.93594 -77.45495 297 ft 15 kts 183°
2026-05-08 23:32 38.93496 -77.45538 288 ft 1 kts 201°
2026-05-08 23:32 38.93492 -77.45541 290 ft 0 kts 201°
2026-05-08 23:33 38.93491 -77.45541 290 ft 1 kts 201°
2026-05-08 23:33 38.93473 -77.45550 286 ft 5 kts 201°
2026-05-08 23:33 38.93434 -77.45570 288 ft 7 kts 201°
2026-05-08 23:33 38.93396 -77.45602 289 ft 7 kts 226°
2026-05-08 23:34 38.93384 -77.45658 286 ft 7 kts 276°
2026-05-08 23:34 38.93401 -77.45727 287 ft 18 kts 289°
2026-05-08 23:34 38.93550 -77.46243 296 ft 111 kts 291°
2026-05-08 23:34 38.93940 -77.47563 365 ft 198 kts 290°
2026-05-08 23:35 38.94477 -77.49271 1242 ft 208 kts 288°
2026-05-08 23:35 38.94616 -77.51114 2175 ft 210 kts 258°
2026-05-08 23:35 38.94185 -77.52885 2894 ft 211 kts 247°
2026-05-08 23:35 38.93622 -77.54775 3070 ft 242 kts 250°
2026-05-08 23:36 38.93078 -77.56839 3950 ft 242 kts 251°
2026-05-08 23:36 38.92550 -77.58906 5338 ft 248 kts 251°
2026-05-08 23:36 38.92019 -77.61017 6758 ft 254 kts 251°
2026-05-08 23:36 38.91469 -77.63232 8174 ft 260 kts 253°
2026-05-08 23:37 38.90927 -77.65433 9536 ft 264 kts 253°
2026-05-08 23:37 38.90371 -77.67696 10693 ft 271 kts 254°
2026-05-08 23:37 38.89780 -77.70107 11440 ft 296 kts 254°
2026-05-08 23:37 38.89234 -77.72814 11775 ft 331 kts 261°
2026-05-08 23:38 38.88912 -77.75850 12538 ft 350 kts 265°
2026-05-08 23:38 38.88647 -77.78981 13825 ft 355 kts 265°
2026-05-08 23:38 38.88362 -77.82124 15098 ft 354 kts 265°
2026-05-08 23:38 38.88049 -77.85252 16390 ft 354 kts 265°
2026-05-08 23:39 38.87720 -77.88394 17512 ft 357 kts 265°
2026-05-08 23:39 38.87476 -77.91564 18432 ft 358 kts 273°
2026-05-08 23:39 38.87833 -77.94732 19200 ft 361 kts 287°
2026-05-08 23:39 38.88407 -77.96785 19784 ft 362 kts 291°
2026-05-08 23:40 38.89341 -77.99764 20591 ft 366 kts 291°
2026-05-08 23:40 38.90280 -78.02734 21469 ft 368 kts 290°
2026-05-08 23:40 38.91252 -78.05836 22318 ft 371 kts 290°
2026-05-08 23:40 38.92194 -78.08886 23130 ft 374 kts 290°
2026-05-08 23:41 38.93151 -78.12012 23824 ft 377 kts 289°
2026-05-08 23:41 38.94108 -78.15158 24469 ft 379 kts 289°
2026-05-08 23:41 38.95067 -78.18317 25127 ft 381 kts 289°
2026-05-08 23:41 38.95979 -78.21514 25748 ft 381 kts 284°
2026-05-08 23:42 38.96402 -78.24838 26377 ft 376 kts 274°
2026-05-08 23:42 38.96596 -78.28195 27023 ft 376 kts 275°
2026-05-08 23:42 38.96804 -78.31526 27766 ft 373 kts 275°
2026-05-08 23:42 38.97019 -78.34832 27925 ft 372 kts 275°
2026-05-08 23:43 38.97243 -78.38183 27939 ft 381 kts 275°
2026-05-08 23:43 38.97477 -78.41619 27941 ft 390 kts 275°
2026-05-08 23:43 38.97718 -78.45128 27941 ft 399 kts 275°
2026-05-08 23:43 38.97964 -78.48709 27930 ft 406 kts 275°
2026-05-08 23:44 38.98216 -78.52347 27947 ft 412 kts 275°
2026-05-08 23:44 38.98467 -78.56039 27936 ft 418 kts 275°
2026-05-08 23:44 38.98716 -78.59774 27941 ft 421 kts 275°
2026-05-08 23:44 38.98971 -78.63546 27946 ft 424 kts 275°
2026-05-08 23:45 38.99229 -78.67331 27913 ft 425 kts 275°
2026-05-08 23:45 38.99483 -78.71113 27931 ft 426 kts 275°
2026-05-08 23:45 38.99734 -78.74906 27934 ft 426 kts 275°
2026-05-08 23:45 38.99984 -78.78708 27927 ft 426 kts 275°
2026-05-08 23:46 39.00231 -78.82494 27936 ft 426 kts 275°
2026-05-08 23:46 39.00481 -78.86283 27935 ft 425 kts 275°
2026-05-08 23:46 39.00729 -78.90065 27933 ft 425 kts 275°
2026-05-08 23:46 39.00977 -78.93848 27939 ft 425 kts 275°
2026-05-08 23:47 39.01222 -78.97634 27945 ft 424 kts 275°
2026-05-08 23:47 39.01459 -79.01321 27943 ft 424 kts 275°
2026-05-08 23:47 39.01701 -79.05098 27938 ft 424 kts 275°
2026-05-08 23:47 39.01942 -79.08876 27926 ft 423 kts 274°
2026-05-08 23:48 39.02180 -79.12640 27947 ft 423 kts 275°
2026-05-08 23:48 39.02417 -79.16413 27952 ft 424 kts 275°
2026-05-08 23:48 39.02651 -79.20138 27951 ft 424 kts 275°
2026-05-08 23:48 39.02891 -79.23969 27936 ft 424 kts 274°
2026-05-08 23:49 39.03122 -79.27697 27939 ft 424 kts 275°
2026-05-08 23:49 39.03354 -79.31476 27967 ft 424 kts 275°
2026-05-08 23:49 39.03588 -79.35266 27953 ft 425 kts 275°
2026-05-08 23:49 39.03819 -79.39048 27959 ft 424 kts 275°
2026-05-08 23:50 39.04049 -79.42832 27948 ft 425 kts 274°
2026-05-08 23:50 39.04278 -79.46620 27960 ft 425 kts 274°
2026-05-08 23:50 39.04507 -79.50405 27970 ft 425 kts 274°
2026-05-08 23:50 39.04734 -79.54201 27968 ft 425 kts 274°
2026-05-08 23:51 39.04957 -79.57991 27993 ft 424 kts 274°
2026-05-08 23:51 39.05181 -79.61778 27968 ft 425 kts 274°
2026-05-08 23:51 39.05404 -79.65557 28000 ft 423 kts 274°
2026-05-08 23:51 39.05623 -79.69344 27949 ft 424 kts 274°
2026-05-08 23:52 39.05843 -79.73131 27957 ft 425 kts 274°
2026-05-08 23:52 39.06066 -79.76921 27962 ft 425 kts 274°
2026-05-08 23:52 39.06284 -79.80722 27969 ft 426 kts 274°
2026-05-08 23:52 39.06501 -79.84526 27954 ft 427 kts 274°
2026-05-08 23:53 39.06716 -79.88342 27972 ft 428 kts 274°
2026-05-08 23:53 39.06931 -79.92164 27958 ft 428 kts 274°
2026-05-08 23:53 39.07145 -79.95981 27957 ft 428 kts 274°
2026-05-08 23:53 39.07360 -79.99798 27957 ft 427 kts 274°
2026-05-08 23:54 39.07567 -80.03514 27954 ft 427 kts 274°
2026-05-08 23:54 39.07777 -80.07323 27944 ft 427 kts 274°
2026-05-08 23:54 39.07987 -80.11135 27941 ft 427 kts 274°
2026-05-08 23:55 39.08400 -80.18749 27933 ft 427 kts 274°
2026-05-08 23:55 39.08606 -80.22562 27934 ft 427 kts 274°
2026-05-08 23:55 39.08810 -80.26377 27938 ft 428 kts 274°
2026-05-08 23:55 39.09013 -80.30201 27932 ft 428 kts 274°
2026-05-08 23:56 39.09211 -80.33970 27933 ft 428 kts 274°
2026-05-08 23:56 39.09413 -80.37794 27936 ft 428 kts 274°
2026-05-08 23:56 39.09614 -80.41626 27918 ft 429 kts 274°
2026-05-08 23:56 39.09813 -80.45453 27926 ft 429 kts 274°
2026-05-08 23:57 39.10012 -80.49284 27935 ft 429 kts 274°
2026-05-08 23:57 39.10207 -80.53113 27933 ft 429 kts 274°
2026-05-08 23:57 39.10402 -80.56939 27921 ft 429 kts 273°
2026-05-08 23:57 39.10596 -80.60772 27926 ft 429 kts 273°
2026-05-08 23:58 39.10788 -80.64601 27929 ft 429 kts 273°
2026-05-08 23:58 39.10979 -80.68430 27921 ft 429 kts 273°
2026-05-08 23:58 39.11169 -80.72266 27925 ft 429 kts 273°
2026-05-08 23:58 39.11358 -80.76100 27922 ft 429 kts 273°
2026-05-08 23:59 39.11545 -80.79939 27922 ft 429 kts 273°
2026-05-08 23:59 39.11732 -80.83773 27922 ft 429 kts 273°
2026-05-08 23:59 39.11917 -80.87611 27918 ft 429 kts 273°
2026-05-08 23:59 39.12101 -80.91443 27929 ft 429 kts 273°
2026-05-09 00:00 39.12284 -80.95282 27928 ft 429 kts 273°
2026-05-09 00:00 39.12466 -80.99115 27928 ft 429 kts 273°
2026-05-09 00:00 39.12642 -81.02847 27928 ft 429 kts 273°
2026-05-09 00:00 39.12822 -81.06680 27929 ft 429 kts 273°
2026-05-09 00:01 39.13238 -81.10451 27907 ft 418 kts 282°
2026-05-09 00:01 39.14245 -81.13842 27937 ft 395 kts 290°
2026-05-09 00:01 39.15296 -81.17035 27872 ft 380 kts 288°
2026-05-09 00:01 39.16266 -81.20156 27579 ft 371 kts 288°
2026-05-09 00:02 39.17198 -81.23238 27106 ft 368 kts 288°
2026-05-09 00:02 39.18121 -81.26318 26505 ft 368 kts 288°
2026-05-09 00:02 39.19043 -81.29402 25906 ft 369 kts 288°
2026-05-09 00:02 39.19970 -81.32497 25321 ft 370 kts 288°
2026-05-09 00:03 39.20896 -81.35588 24817 ft 369 kts 288°
2026-05-09 00:03 39.21821 -81.38674 24365 ft 368 kts 288°
2026-05-09 00:03 39.22742 -81.41741 24042 ft 367 kts 288°
2026-05-09 00:03 39.23667 -81.44823 23945 ft 368 kts 288°
2026-05-09 00:04 39.24588 -81.47892 23934 ft 366 kts 288°
2026-05-09 00:04 39.25503 -81.50947 23898 ft 364 kts 288°
2026-05-09 00:04 39.26416 -81.54000 23711 ft 365 kts 288°
2026-05-09 00:04 39.27331 -81.57060 23530 ft 366 kts 288°
2026-05-09 00:05 39.28245 -81.60122 23454 ft 364 kts 288°
2026-05-09 00:05 39.29138 -81.63115 23372 ft 362 kts 288°
2026-05-09 00:05 39.30039 -81.66142 23243 ft 361 kts 288°
2026-05-09 00:05 39.30939 -81.69171 22824 ft 363 kts 288°
2026-05-09 00:06 39.31846 -81.72228 22233 ft 364 kts 288°
2026-05-09 00:06 39.32747 -81.75263 21742 ft 360 kts 288°
2026-05-09 00:06 39.33640 -81.78272 21244 ft 357 kts 288°
2026-05-09 00:06 39.34524 -81.81256 20782 ft 354 kts 289°
2026-05-09 00:07 39.35398 -81.84209 20336 ft 350 kts 289°
2026-05-09 00:07 39.36264 -81.87140 19874 ft 348 kts 289°
2026-05-09 00:07 39.37121 -81.90044 19418 ft 345 kts 289°
2026-05-09 00:07 39.37972 -81.92932 18985 ft 343 kts 289°
2026-05-09 00:08 39.38817 -81.95802 18543 ft 341 kts 289°
2026-05-09 00:08 39.39656 -81.98654 18080 ft 339 kts 289°
2026-05-09 00:08 39.40470 -82.01423 17609 ft 337 kts 289°
2026-05-09 00:08 39.41297 -82.04242 17153 ft 334 kts 289°
2026-05-09 00:09 39.42117 -82.07036 16711 ft 331 kts 289°
2026-05-09 00:09 39.42928 -82.09807 16284 ft 328 kts 289°
2026-05-09 00:09 39.43732 -82.12550 15865 ft 324 kts 288°
2026-05-09 00:09 39.44524 -82.15264 15513 ft 319 kts 288°
2026-05-09 00:10 39.45304 -82.17936 15088 ft 315 kts 289°
2026-05-09 00:10 39.46062 -82.20531 14248 ft 306 kts 288°
2026-05-09 00:10 39.46812 -82.23106 13221 ft 306 kts 288°
2026-05-09 00:10 39.47566 -82.25699 12023 ft 310 kts 288°
2026-05-09 00:11 39.48330 -82.28326 10921 ft 313 kts 288°
2026-05-09 00:11 39.49106 -82.30999 10254 ft 317 kts 288°
2026-05-09 00:11 39.49892 -82.33605 10074 ft 304 kts 293°
2026-05-09 00:11 39.51093 -82.35800 9989 ft 296 kts 311°
2026-05-09 00:12 39.52670 -82.37457 9866 ft 287 kts 319°
2026-05-09 00:12 39.54265 -82.38939 9682 ft 278 kts 320°
2026-05-09 00:12 39.55823 -82.40371 9469 ft 272 kts 319°
2026-05-09 00:12 39.57353 -82.41788 9078 ft 270 kts 319°
2026-05-09 00:13 39.58870 -82.43203 8685 ft 268 kts 319°
2026-05-09 00:13 39.60375 -82.44614 8293 ft 266 kts 318°
2026-05-09 00:13 39.61872 -82.46022 7899 ft 265 kts 318°
2026-05-09 00:13 39.63359 -82.47430 7511 ft 264 kts 318°
2026-05-09 00:14 39.64836 -82.48827 7153 ft 262 kts 318°
2026-05-09 00:14 39.66309 -82.50221 6789 ft 261 kts 318°
2026-05-09 00:14 39.67768 -82.51604 6435 ft 259 kts 318°
2026-05-09 00:14 39.69219 -82.52982 6004 ft 259 kts 318°
2026-05-09 00:15 39.70671 -82.54360 5611 ft 258 kts 319°
2026-05-09 00:15 39.72119 -82.55712 5271 ft 256 kts 320°
2026-05-09 00:15 39.73561 -82.56975 5063 ft 248 kts 320°
2026-05-09 00:15 39.75006 -82.58231 5022 ft 248 kts 320°
2026-05-09 00:16 39.76463 -82.59506 5030 ft 257 kts 320°
2026-05-09 00:16 39.77935 -82.60799 5020 ft 259 kts 320°
2026-05-09 00:16 39.79426 -82.62100 5000 ft 256 kts 323°
2026-05-09 00:16 39.81110 -82.62868 5006 ft 263 kts 351°
2026-05-09 00:17 39.82957 -82.62496 5021 ft 269 kts 16°
2026-05-09 00:17 39.84641 -82.61552 4986 ft 257 kts 21°
2026-05-09 00:17 39.86174 -82.60587 4976 ft 240 kts 22°
2026-05-09 00:17 39.87638 -82.59644 5001 ft 238 kts 22°
2026-05-09 00:18 39.89116 -82.58683 5067 ft 232 kts 22°
2026-05-09 00:18 39.90495 -82.57774 4984 ft 211 kts 22°
2026-05-09 00:18 39.91734 -82.56942 4953 ft 194 kts 22°
2026-05-09 00:18 39.92955 -82.56114 5028 ft 204 kts 22°
2026-05-09 00:19 39.94249 -82.55256 5018 ft 210 kts 18°
2026-05-09 00:19 39.95632 -82.54978 4996 ft 195 kts 339°
2026-05-09 00:19 39.96748 -82.55771 4917 ft 177 kts 306°
2026-05-09 00:19 39.97535 -82.56982 4628 ft 175 kts 300°
2026-05-09 00:20 39.98244 -82.58250 4197 ft 169 kts 288°
2026-05-09 00:20 39.98319 -82.59641 3909 ft 152 kts 258°
2026-05-09 00:20 39.98021 -82.60982 3975 ft 158 kts 245°
2026-05-09 00:20 39.97648 -82.62348 4054 ft 166 kts 262°
2026-05-09 00:21 39.97624 -82.63915 3809 ft 173 kts 267°
2026-05-09 00:21 39.97671 -82.65450 3637 ft 167 kts 274°
2026-05-09 00:21 39.97822 -82.66929 3550 ft 165 kts 273°
2026-05-09 00:21 39.97924 -82.68424 3463 ft 166 kts 271°
2026-05-09 00:22 39.97985 -82.69943 3366 ft 169 kts 269°
2026-05-09 00:22 39.98093 -82.71484 3138 ft 171 kts 274°
2026-05-09 00:22 39.98231 -82.72989 3060 ft 165 kts 274°
2026-05-09 00:22 39.98397 -82.74474 3014 ft 166 kts 274°
2026-05-09 00:23 39.98514 -82.75987 2896 ft 173 kts 272°
2026-05-09 00:23 39.98609 -82.77588 2407 ft 176 kts 272°
2026-05-09 00:23 39.98695 -82.79103 2098 ft 160 kts 272°
2026-05-09 00:23 39.98774 -82.80486 1883 ft 147 kts 272°
2026-05-09 00:24 39.98848 -82.81812 1690 ft 149 kts 273°
2026-05-09 00:24 39.98926 -82.83186 1474 ft 154 kts 273°
2026-05-09 00:24 39.99003 -82.84570 1279 ft 150 kts 273°
2026-05-09 00:24 39.99084 -82.85927 1071 ft 150 kts 273°
2026-05-09 00:25 39.99129 -82.86814 944 ft 146 kts 273°
2026-05-09 00:25 39.99198 -82.88050 822 ft 125 kts 274°
2026-05-09 00:25 39.99252 -82.89018 823 ft 86 kts 275°
2026-05-09 00:25 39.99294 -82.89663 828 ft 67 kts 275°
2026-05-09 00:26 39.99400 -82.90162 823 ft 30 kts 302°
2026-05-09 00:26 39.99488 -82.90167 820 ft 17 kts 75°
2026-05-09 00:26 39.99490 -82.90148 821 ft 0 kts 85°
2026-05-09 00:27 39.99492 -82.90096 823 ft 8 kts 88°
2026-05-09 00:28 39.99494 -82.90022 824 ft 8 kts 88°
2026-05-09 00:28 39.99493 -82.89949 826 ft 8 kts 95°
2026-05-09 00:28 39.99485 -82.89834 829 ft 16 kts 95°
2026-05-09 00:28 39.99475 -82.89684 828 ft 17 kts 95°
2026-05-09 00:29 39.99464 -82.89535 829 ft 17 kts 95°
2026-05-09 00:29 39.99454 -82.89386 824 ft 17 kts 95°
2026-05-09 00:29 39.99448 -82.89245 828 ft 15 kts 85°
2026-05-09 00:29 39.99526 -82.89177 828 ft 14 kts
2026-05-09 00:30 39.99618 -82.89173 828 ft 13 kts
2026-05-09 00:30 39.99649 -82.89088 828 ft 12 kts 98°
2026-05-09 00:30 39.99637 -82.88985 823 ft 12 kts 99°
2026-05-09 00:30 39.99613 -82.88873 823 ft 13 kts 104°
2026-05-09 00:31 39.99644 -82.88801 820 ft 9 kts 13°
2026-05-09 00:31 39.99667 -82.88798 823 ft 0 kts
2026-05-09 00:31 39.99670 -82.88798 823 ft 0 kts